Regional Weather Roundup
Issued by NWS

Home | Current Version | Previous Version | Graphics & Text | Print | Product List | Glossary On
Versions: 1 2 3 4 5 6 7 8 9 10 11 12 13 14 15 16 17 18 19 20 21 22 23 24 25 26 27 28 29 30 31 32 33 34 35 36 37 38 39 40 41 42 43 44 45 46 47 48 49 50
498
ASUS45 KABQ 041810
RWRNM
NEW MEXICO REGIONAL WEATHER ROUNDUP
NATIONAL WEATHER SERVICE ALBUQUERQUE NM
1100 AM MST SUN DEC 04 2016

NOTE: "FAIR" MEANS FEW OR NO CLOUDS BELOW 12,000 FEET AGL WITH NO
       SIGNIFICANT WEATHER OR OBSTRUCTIONS TO VISION.

      THIS PRODUCT IS RELEASED AS TWO VERSIONS.  ONE VERSION NEAR
      THE TOP OF THE HOUR CONTAINING PRELIMINARY DATA FROM ALBUQUERQUE
      AND OTHER STATIONS.  A FINAL VERSION WITH ADDITIONAL DATA IS
      ISSUED ABOUT 10 MINUTES AFTER THE HOUR.

NMZ501-503-504-510>518-041900-
NORTHWEST PLATEAU/NORTHCENTRAL MOUNTAINS

CITY           SKY/WX    TMP DP  RH WIND       PRES   REMARKS
FARMINGTON     FAIR      31  20  63 CALM      30.20F
6HR MIN TEMP:  17; 6HR MAX TEMP:  31;

LOS ALAMOS     FAIR      31  16  53 NE9       30.16F WCI  23
SANTA FE       FAIR      36  12  37 N17       30.15S WCI  26
6HR MIN TEMP:  21; 6HR MAX TEMP:  36;

TAOS           FAIR      30   7  37 N9        30.18F WCI  22
ANGEL FIRE     FAIR      25  10  54 CALM      30.12F

$$
NMZ402-403-502-505>509-041900-
WESTCENTRAL MOUNTAINS/SOUTHWEST MOUNTAINS

CITY           SKY/WX    TMP DP  RH WIND       PRES   REMARKS
GALLUP         FAIR      33  18  53 CALM      30.19F
6HR MIN TEMP:   9; 6HR MAX TEMP:  33;

GRANTS         FAIR      36  12  37 N13G21    30.20F WCI  27

$$
NMZ407-409-411-412-041900-
SOUTHERN DESERTS

CITY           SKY/WX    TMP DP  RH WIND       PRES   REMARKS
DEMING         FAIR      50  24  36 NE22G29   30.11F
6HR MIN TEMP:  34; 6HR MAX TEMP:  50;

LAS CRUCES     FAIR      49  18  29 N10       30.11F
HOLLOMAN AFB   FAIR      48  29  46 N6        30.14F
T OR C         FAIR      46  16  30 N7        30.14F
6HR MIN TEMP:  30; 6HR MAX TEMP:  47;


$$
NMZ519>523-041900-
CENTRAL VALLEYS/CENTRAL HIGHLANDS

CITY           SKY/WX    TMP DP  RH WIND       PRES   REMARKS
ALBUQUERQUE    FAIR      39  13  34 VRB3      30.18F
6HR MIN TEMP:  28; 6HR MAX TEMP:  39;

DOUBLE EAGLE   SUNNY     37  12  35 VRB6      30.19S WCI  33
MORIARTY ARPT  FAIR      39   9  28 N9        30.15F WCI  33
6HR MIN TEMP:  15; 6HR MAX TEMP:  39;

CLINES CORNERS FAIR      39  11  31 NW12      30.12F WCI  32
6HR MIN TEMP:  15; 6HR MAX TEMP:  39;

BELEN          FAIR      40  15  36 W7        30.18F WCI  35
6HR MIN TEMP:  23; 6HR MAX TEMP:  40;

SOCORRO        FAIR      42  15  34 N15       30.18F
6HR MIN TEMP:  26; 6HR MAX TEMP:  42;


$$
NMZ524>526-539-540-041900-
SOUTHCENTRAL MOUNTAINS

CITY           SKY/WX    TMP DP  RH WIND       PRES   REMARKS
RUIDOSO        FAIR      37  18  44 CALM      30.15F

$$
NMZ527>531-041900-
NORTHEAST HIGHLANDS/NORTHEAST PLAINS

CITY           SKY/WX    TMP DP  RH WIND       PRES   REMARKS
LAS VEGAS      FAIR      38  16  40 S18G24    30.10F WCI  28
6HR MIN TEMP:  16; 6HR MAX TEMP:  38;

RATON          FAIR      36  15  42 S9        30.10F WCI  29
6HR MIN TEMP:  10; 6HR MAX TEMP:  36;

CLAYTON        FAIR      43  16  33 SW8       30.09F
6HR MIN TEMP:  22; 6HR MAX TEMP:  43;


$$
NMZ532>537-041900-
EASTCENTRAL PLAINS

CITY           SKY/WX    TMP DP  RH WIND       PRES   REMARKS
TUCUMCARI      FAIR      42  26  53 CALM      30.14F
6HR MIN TEMP:  22; 6HR MAX TEMP:  42;

CANNON AFB     FAIR      41  33  72 VRB6      30.12F
6HR MIN TEMP:  28; 6HR MAX TEMP:  41;

CLOVIS AIRPORT FAIR      45  25  45 NE8       30.12F

$$
NMZ028-029-538-041900-
SOUTHEAST PLAINS

CITY           SKY/WX    TMP DP  RH WIND       PRES   REMARKS
ROSWELL        FAIR      44  30  57 NE9       30.16F
6HR MIN TEMP:  33; 6HR MAX TEMP:  45;

ARTESIA        FAIR      43  36  75 N13       30.17S
CARLSBAD       CLOUDY    40  36  86 N13       30.16F WCI  32
6HR MIN TEMP:  32; 6HR MAX TEMP:  41;

HOBBS          CLOUDY    37  37 100 N8        30.15F WCI  31


$$




USA.gov is the U.S. government's official web portal to all federal, state and local government web resources and services.